Location: Luz Observatory
(34.5000°N, 117.2833°W)
Time: 11:46:05
(UTC-07:00)

Daily predictions for brighter satellites

Satellite Brightness Start Highest point End
(mag) Time Altitude Azimuth Time Altitude Azimuth Time Altitude Azimuth
USA 234 3.3 20:05:57 10° NE 20:12:32 78° SE 20:19:05 10° SW
Cosmos 2082 Rocket 2.2 20:07:41 10° SSW 20:13:19 86° ESE 20:19:01 10° NNE
ATLAS CENTAUR R/B 4.2 20:10:34 10° SSE 20:15:16 32° ESE 20:26:11 10° NE
Envisat 3.1 20:12:01 10° SSE 20:17:05 89° NE 20:22:11 10° NNW
SJ-6B 2.7 20:14:04 10° SSE 20:17:48 88° E 20:21:33 10° NNW
Delta 168 4.2 20:16:51 10° SW 20:19:01 16° S 20:21:02 10° SE
Thor Agena Rocket 3.6 20:14:28 10° NNE 20:19:43 64° ESE 20:24:52 10° S
USA 186 2.0 20:17:28 10° SSE 20:20:22 47° ENE 20:23:29 10° N
Cosmos 371 Rocket 3.2 20:18:04 10° SSW 20:22:52 78° ESE 20:27:41 10° NNE
Cosmos 968 Rocket 4.2 20:19:34 10° NNW 20:24:43 56° WSW 20:29:48 10° S
GPS 2-04 Rocket1 3.0 20:25:04 10° W 20:29:17 76° N 20:33:34 10° E
Cosmos 2151 Rocket 3.8 20:26:08 10° N 20:30:31 55° E 20:34:51 10° SSE
Cosmos 2278 3.7 20:24:51 10° NNW 20:30:33 78° ENE 20:36:13 10° SSE
Cosmos 1459 Rocket 4.0 20:29:00 10° S 20:35:02 84° W 20:41:07 10° N
Lacrosse 4 Rocket 3.7 20:32:28 10° NW 20:36:05 24° WSW 20:39:41 10° SSW
Okean 3 3.7 20:32:27 10° SSE 20:36:36 50° E 20:40:45 10° NNE
Cosmos 332 Rocket 4.1 20:31:51 10° SSW 20:36:37 70° WNW 20:41:27 10° NNE
Cosmos 2173 Rocket 4.3 20:34:33 10° S 20:40:55 76° W 20:47:18 10° N
Cosmos 2061 Rocket 4.1 20:34:56 10° S 20:41:20 90° SE 20:47:44 10° N
CENTAUR R/B 4.0 20:42:23 11° ESE 20:42:39 11° ESE 20:44:33 10° E
Cosmos 1939 Rocket 2.9 20:41:15 10° S 20:45:19 85° WSW 20:49:28 10° NNW
Cosmos 1300 Rocket 3.6 20:42:08 10° N 20:46:26 57° E 20:50:30 11° SSE
Okean 1 3.9 20:44:22 10° SSE 20:48:07 38° E 20:51:53 10° NNE
ATLAS 3B R/B 2.8 20:44:20 10° SSW 20:51:37 83° ESE 20:58:38 10° NNE
Shenzhou-11 Module 4.4 20:51:43 10° WNW 20:54:06 22° NNW 20:56:30 10° NE
Cosmos 44 Rocket 3.4 20:49:52 10° NNW 20:55:04 76° ENE 20:59:05 17° SE
Spot 2 Rocket 3.5 20:51:33 12° SSE 20:56:16 67° ENE 21:01:16 10° N
ISS -3.8 20:55:47 10° SW 20:59:02 81° NW 21:02:18 10° NE
SJ-11-01 4.3 20:55:33 10° SSE 21:00:15 87° WSW 21:05:01 10° NNW
Delta 7925 Rocket 4.2 20:56:43 10° SW 21:00:36 27° S 21:02:26 21° SE
Cosmos 1500 3.1 20:57:44 10° N 21:01:37 85° E 21:04:47 15° S
Resurs 1-3 3.8 20:57:44 10° S 21:02:05 70° WSW 21:06:28 10° NNW
Cosmos 2016 Rocket 4.2 20:56:12 10° SSW 21:02:16 73° W 21:08:23 10° N
Cosmos 468 Rocket 4.5 20:58:13 10° S 21:03:06 39° E 21:07:57 10° NE
Cosmos 1697 Rocket 2.8 20:58:14 10° NNW 21:03:54 76° WSW 21:08:53 13° SSE
Meteor 1-18 Rocket 4.2 21:01:33 10° S 21:07:19 81° E 21:13:13 10° N
YAOGAN 6 4.3 21:05:03 10° SSW 21:08:23 32° W 21:11:44 10° NNW
Tsikada Rocket 4.1 21:02:16 10° N 21:08:37 64° E 21:13:42 17° SSE
Cosmos 1570 Rocket 4.0 21:06:28 10° S 21:11:46 74° ESE 21:17:07 10° NNE
Cosmos 1725 Rocket 4.0 21:05:45 10° S 21:11:55 84° W 21:18:08 10° N
Cosmos 1980 Rocket 2.2 21:10:05 10° NNW 21:15:45 76° ENE 21:19:19 24° SSE
Cosmos 1763 Rocket 4.3 21:14:02 24° SE 21:16:00 31° E 21:20:38 10° NE
Cosmos 1666 3.5 21:13:04 10° NNE 21:16:38 35° E 21:17:28 31° ESE
Cosmos 1743 3.5 21:14:47 10° NNE 21:18:16 33° E 21:18:54 31° E
Abrixas rocket 2.0 21:15:39 10° SW 21:18:50 67° SE 21:21:10 17° ENE
OAO 1 Rocket 4.4 21:17:44 10° WSW 21:23:03 72° SSE 21:26:58 18° E
Cosmos 304 Rocket 4.0 21:19:50 10° SSW 21:24:37 71° WNW 21:29:26 10° NNE
ERS-2 4.2 21:23:23 10° SSW 21:26:27 25° W 21:29:34 10° NW
H-2A R/B 2.4 21:24:49 30° ESE 21:26:39 43° ENE 21:31:20 10° N
Iridium 2 4.0 21:28:41 42° ESE 21:29:05 43° E 21:32:43 10° NNE
Meteor 2-4 Rocket 4.2 21:27:43 31° SE 21:29:17 37° E 21:34:18 10° NNE
Helios 1B rocket 4.4 21:27:41 10° NE 21:29:07 15° ENE 21:29:07 15° ENE
deb Kosmos-1763 4.0 21:31:57 47° SSE 21:32:48 64° ESE 21:36:29 10° NNE
Cosmos 1455 Rocket 4.5 21:29:51 10° NNE 21:33:14 22° ENE 21:33:14 22° ENE
ATLAS CENTAUR R/B 1.6 21:29:13 10° NNW 21:33:50 88° WSW 21:35:40 38° SSE
Cosmos 2346 Rocket 4.4 21:28:26 10° N 21:34:42 84° E 21:38:32 25° S
BREEZE-M DEB (TANK) 3.0 21:32:48 10° NW 21:35:12 52° NE 21:36:09 39° E
Cosmos 1242 Rocket 2.9 21:33:02 10° N 21:36:35 45° E 21:36:35 45° E
Tiangong 2 1.7 21:34:36 10° WSW 21:37:41 55° NNW 21:39:02 29° NE
Cosmos 2208 Rocket 4.2 21:33:17 10° SSW 21:38:28 71° WNW 21:43:38 10° NNE
Cosmos 1975 Rocket 2.9 21:36:41 34° S 21:38:32 80° E 21:42:52 10° N
Okean 1 Rocket 3.6 21:37:21 10° NNW 21:41:37 56° W 21:43:53 26° SSW
Meteor 1-13 Rocket 4.3 21:41:22 30° SSE 21:44:14 64° E 21:50:06 10° NNE
Resurs 01 Rocket 3.7 21:40:44 10° SSW 21:44:15 23° W 21:47:46 10° NW
Cosmos 1898 Rocket 3.8 21:39:16 10° N 21:44:26 52° ENE 21:45:49 41° ESE
Cosmos 1814 Rocket 4.0 21:46:23 39° SSE 21:48:11 61° ESE 21:53:24 10° NNE
Cosmos 1975 3.0 21:44:44 10° NNW 21:48:45 67° W 21:49:50 44° SSW
ERS-1 Rocket 3.0 21:47:59 45° SE 21:49:15 60° ENE 21:54:12 10° N
MetOp-A 4.1 21:50:08 36° S 21:52:26 81° WSW 21:57:48 10° NNW
Cosmos 292 Rocket 4.2 21:55:18 42° E 21:55:18 42° E 21:59:16 10° NNE
NOSS 3-2 (A) 4.4 21:49:31 10° SW 21:55:06 47° NW 22:01:15 10° NNE
CSL-04 DEB 4.4 21:54:50 65° SSE 21:55:27 88° ENE 21:59:39 10° NNW
Cosmos 2233 Rocket 4.4 21:49:48 10° SSW 21:55:49 59° W 22:01:55 10° N
Centaur D-1AR AC-36 3.8 21:24:18 10° WSW 21:57:04 39° SSW 21:59:27 33° SSE
NOSS 3-2 (C) 3.8 21:52:39 10° SW 21:58:24 63° WNW 22:04:45 10° NNE
Atlas Centaur 2 2.5 21:55:31 10° WSW 21:57:28 27° SW 21:57:28 27° SW
Cosmos 1544 Rocket 4.0 21:55:54 10° N 21:59:55 45° ENE 21:59:55 45° ENE
Meteor 2-20 4.4 21:55:37 10° N 22:01:44 69° E 22:03:29 47° SSE
Cosmos 2322 Rocket 2.3 21:59:09 10° NNW 22:04:41 58° ENE 22:05:39 50° ESE
GPS 2-04 Rocket1 3.2 22:04:50 10° W 22:08:26 54° WSW 22:08:26 54° WSW
Cosmos 2150 Rocket 4.5 22:05:26 10° N 22:10:35 44° ENE 22:10:55 44° E
SL-16 R/B 2.1 22:05:35 10° NNW 22:11:16 71° ENE 22:12:12 59° ESE
Cosmos 1536 Rocket 4.2 22:12:42 43° NE 22:12:42 43° NE 22:16:05 10° NNE
SPOT 5 2.8 22:12:31 58° NE 22:12:31 58° NE 22:16:37 10° N
Cosmos 990 Rocket 3.9 22:07:59 10° NNW 22:13:11 70° ENE 22:13:38 66° ESE
ARGOS 3.8 22:12:18 32° SSW 22:14:24 48° W 22:19:37 10° NNW
Helios 1A 3.1 22:17:11 65° NNE 22:17:11 65° NNE 22:20:50 10° N
Landsat 7 4.1 22:18:33 52° ENE 22:18:33 52° ENE 22:22:55 10° N
SJ 16-02 3.3 22:16:41 10° NNE 22:19:00 18° NE 22:19:00 18° NE
CZ-2C R/B 4.3 22:22:06 29° ENE 22:22:06 29° ENE 22:26:35 10° N
Cosmos 2298 Rocket 3.9 22:24:34 10° NNW 22:29:53 78° ENE 22:29:54 78° ENE
CENTAUR R/B 2.4 22:29:22 35° SW 22:32:03 82° WNW 22:38:42 10° NNE
Cosmos 2034 Rocket 3.8 22:34:18 70° SSE 22:35:04 83° E 22:41:14 10° N
ISS -0.2 22:34:55 10° NW 22:35:58 11° NNW 22:37:02 10° N
Terra 2.4 22:37:46 47° NE 22:37:46 47° NE 22:41:35 10° N
Cosmos 1513 Rocket 4.5 22:36:21 54° SSW 22:37:44 74° W 22:43:53 10° N
Lacrosse 5 rocket 3.9 22:36:49 10° N 22:38:48 13° NNE 22:39:13 13° NE
Cosmos 1464 Rocket 4.3 22:39:11 41° SW 22:41:20 63° W 22:47:40 10° N
CARTOSAT-1 4.5 22:46:04 45° N 22:46:04 45° N 22:49:07 10° N
Gbstr 26 Del rocket 4.3 22:37:21 10° NW 22:45:33 82° SW 22:46:59 63° SSE
Cosmos 1937 Rocket 4.0 22:43:28 10° NNW 22:48:17 52° W 22:48:17 52° W
Meteor 1-23 Rocket 4.4 22:48:53 61° WSW 22:49:25 65° W 22:54:58 10° N
SL-19 R/B 4.3 22:49:47 82° S 22:50:04 88° WSW 22:56:23 10° NNW
Cosmos 2360 Rocket 2.4 22:51:29 10° NNW 22:56:35 64° NNE 22:56:35 64° NNE
Cosmos 540 Rocket 3.9 23:01:20 60° NW 23:01:20 60° NW 23:06:00 10° N
SPOT 1/Viking Rocket 4.4 23:02:01 43° W 23:02:01 43° W 23:06:44 10° NNW
Cosmos 2219 Rocket 3.9 22:59:27 10° N 23:03:26 21° NE 23:03:26 21° NE
Helios 1B rocket 4.2 23:02:15 10° NNW 23:05:28 28° WNW 23:05:28 28° WNW
Cosmos 1634 Rocket 4.4 23:06:55 53° ENE 23:06:55 53° ENE 23:12:15 10° NNE
H-2A R/B 4.1 23:05:27 16° WSW 23:06:15 17° W 23:09:23 10° NW
CZ-4C R/B 4.1 23:00:47 10° NNW 23:07:09 31° NE 23:09:26 27° ENE
Cosmos 2333 Rocket 3.9 23:05:35 10° N 23:09:45 21° NE 23:09:45 21° NE
CZ-2C R/B 3.1 23:06:33 10° NNE 23:11:00 57° NNE 23:11:00 57° NNE
COSMOS 2428 3.8 23:08:16 10° N 23:12:46 35° NE 23:12:46 35° NE
Cosmos 2297 Rocket 4.2 23:42:12 17° ENE 23:42:12 17° ENE 23:43:47 10° NE
Cosmos 2322 4.4 23:34:39 10° NNW 23:38:57 50° NW 23:38:57 50° NW
Cosmos 2227 Rocket 4.1 23:44:45 20° NE 23:44:45 20° NE 23:46:44 10° NE
Cosmos 2322 Rocket 4.4 23:45:00 10° WNW 23:47:29 15° W 23:47:29 15° W
Cosmos 2237 Rocket 3.8 23:47:23 10° N 23:51:26 25° NE 23:51:26 25° NE
